Location: Çaml?bel
(36.4591°N, 29.9397°E)
Time: 00:37:29
(UTC+00:00)

Daily predictions for brighter satellites

Satellite Brightness Start Highest point End
(mag) Time Altitude Azimuth Time Altitude Azimuth Time Altitude Azimuth
USA 267 4.4 01:29:17 10° NE 01:32:57 33° NNE 01:32:57 33° NNE
CZ-3 R/B 4.0 01:34:51 21° SW 01:45:53 36° S 01:53:21 10° ESE
BREEZE-M DEB (TANK) 4.3 01:52:42 55° SE 01:52:42 55° SE 01:55:36 10° ENE
Chandra Rocket (1) 3.7 02:01:32 35° SSE 02:01:51 35° SSE 02:11:12 10° E
Cosmos 921 Rocket 4.4 02:03:32 36° NE 02:03:58 37° ENE 02:08:05 10° SE
ACS3 Solar Sail 3.7 02:02:49 10° N 02:03:45 15° N 02:03:45 15° N
USA 234 3.8 02:02:24 10° ESE 02:08:41 52° NE 02:11:31 32° NNW
Gbstr 26 Del rocket 4.2 02:17:12 40° N 02:17:12 40° N 02:21:13 10° NE
BlueWalker 3 4.4 02:20:01 15° NNE 02:20:01 15° NNE 02:22:03 10° ENE
DELTA 2 R/B (1) 4.4 02:21:42 37° SSW 02:21:42 37° SSW 02:26:03 10° SE
Meteor 2-14 Rocket 4.3 02:18:03 10° S 02:24:09 82° W 02:30:16 10° N
SL-16 R/B 4.0 02:22:49 10° SSW 02:24:49 20° SSW 02:24:49 20° SSW
Cosmos 1943 Rocket 4.1 02:26:56 10° N 02:31:34 27° ENE 02:36:08 10° ESE
Atlas 2A Centaur Rocket 4.3 02:33:26 16° SSW 02:34:59 18° S 02:37:30 10° SE
Cosmos 1809 Rocket 4.3 02:29:57 10° SSW 02:35:59 62° W 02:42:02 10° N
ARGOS 4.1 02:31:46 10° N 02:34:50 30° NNW 02:34:50 30° NNW
PAYLOAD A 4.1 02:33:52 10° N 02:39:08 57° WNW 02:40:26 44° WSW
NOSS 3-1 (C) 3.5 02:40:02 37° NNW 02:40:02 37° NNW 02:44:08 10° NNE
Cosmos 1140 Rocket 4.2 02:36:33 10° N 02:41:33 52° ENE 02:46:29 10° SE
CZ-2C R/B 3.6 02:39:43 10° N 02:42:20 27° NNW 02:42:20 27° NNW
Cosmos 2100 Rocket 3.8 02:44:45 10° N 02:50:55 82° W 02:57:05 10° S
Cosmos 2219 Rocket 4.0 02:55:06 15° NNW 02:55:06 15° NNW 02:56:38 10° NNW
Iridium 4 Rocket 4.0 02:51:17 10° N 02:55:25 48° E 02:59:24 10° SSE
NOSS 0 Rocket 3.8 02:50:17 10° SSW 02:56:25 78° WNW 03:02:35 10° NNE
COSMOS 2428 3.0 02:59:22 26° WSW 03:02:02 42° WNW 03:07:26 10° N
IRS-1D 3.3 02:58:25 10° NNE 03:03:24 86° WNW 03:08:19 10° SSW
Cosmos 1340 Rocket 3.6 03:05:56 29° SW 03:05:56 29° SW 03:08:18 10° SSW
Cosmos 2322 4.4 03:08:00 27° W 03:09:40 31° WNW 03:14:41 10° N
Cosmos 1459 Rocket 4.0 03:06:07 10° NNW 03:12:22 61° W 03:18:33 10° S
Cosmos 1864 Rocket 4.4 03:06:52 10° N 03:13:10 82° W 03:19:29 10° S
FengYun 1-2 T 4.4 03:12:45 10° N 03:18:06 49° WNW 03:23:27 10° SW
COSMO-SKYMED 1 3.2 03:15:09 10° SSE 03:19:10 55° ENE 03:23:12 10° N
SKYMED 2 3.6 03:15:14 10° SSE 03:19:34 84° ENE 03:23:55 10° N
Cosmos 1980 3.6 03:16:18 10° SSW 03:21:53 67° WNW 03:27:33 10° NNE
Cosmos 1725 Rocket 4.0 03:16:20 10° N 03:22:39 76° W 03:28:55 10° S
NOSS 3-1 (A) 3.1 03:19:35 14° WSW 03:23:13 45° NW 03:28:18 10° NNE
Cosmos 407 Rocket 3.9 03:18:14 10° NNW 03:23:18 64° ENE 03:28:21 10° SSE
Cosmos 1802 Rocket 4.1 03:24:10 10° NNW 03:30:22 58° W 03:36:28 10° S
Cosmos 1484 Rocket 3.0 03:28:46 10° NNE 03:32:18 63° ESE 03:35:47 10° S
Cosmos 2233 Rocket 4.1 03:27:38 10° N 03:33:59 88° E 03:40:15 10° S
Cosmos 1269 Rocket 4.5 03:30:16 10° NNW 03:35:09 40° WSW 03:40:02 10° S
Cosmos 1703 Rocket 4.4 03:33:41 10° SW 03:37:23 28° WNW 03:41:09 10° NNW
Cosmos 2237 Rocket 2.3 03:32:42 10° SW 03:38:12 52° WNW 03:43:45 10° NNE
Cosmos 2278 Rocket 2.2 03:32:55 10° NNW 03:38:37 86° WSW 03:44:15 10° SSE
Cosmos 2251 Rocket 4.5 03:36:39 10° N 03:41:53 51° ENE 03:47:04 10° SE
ATLAS 3B R/B 4.4 03:36:24 10° S 03:43:08 42° ESE 03:50:17 10° NE
Cosmos 2292 Rocket 4.1 03:40:09 10° SW 03:43:44 36° WNW 03:48:15 10° N
SL-08 R/B 4.5 03:38:41 10° NNW 03:44:43 62° W 03:50:48 10° S
USA 234 3.8 03:45:35 10° SSE 03:51:42 42° SW 03:57:51 10° WNW
IGS 5A 3.7 03:49:24 10° NNE 03:53:25 72° E 03:57:23 10° S
Cosmos 2242 Rocket 3.6 03:49:07 10° S 03:53:28 84° E 03:57:52 10° N
Cosmos 1624 Rocket 4.0 03:50:58 10° SSW 03:56:09 88° E 04:01:21 10° NNE
Helios 1A Rocket 3.3 03:53:20 10° SSW 03:56:19 29° W 03:59:19 10° NW
BlueWalker 3 1.7 03:54:16 10° NW 03:57:53 83° SW 04:01:29 10° SE
Cosmos 1420 Rocket 4.3 03:56:58 10° SW 04:01:58 46° WNW 04:07:03 10° N
USA 276 1.7 04:00:34 10° NW 04:03:14 79° SW 04:06:07 10° SE
Cosmos 1782 Rocket 4.0 04:00:20 10° NNW 04:04:24 38° W 04:08:25 10° SSW
